Tracking 19720 objects as of 26-Jun-2019
HD Live streaming from Space Station
objects crossing your sky now

SL-8 R/B

Track SL-8 R/B now!
10-day predictions


NORAD ID: 14760
Int'l Code: 1984-019B
Perigee: 758.6 km
Apogee: 800.1 km
Inclination: 74.0 °
Period: 100.3 minutes
Semi major axis: 7150 km
RCS: 4.2796 m2 (large)
Launch date: February 21, 1984
Source: Commonwealth of Independent States (former USSR) (CIS)
Launch site: PLESETSK MISSILE AND SPACE COMPLEX (PKMTR)

Note: This is a ROCKET BODY
aabbcc
Your satellite tracking list
Your tracking list is empty




NASA's NSSDC Master Catalog

Two Line Element Set (TLE):
1 14760U 84019B   19177.18014332  .00000083  00000-0  37677-4 0  9992
2 14760  74.0417 206.1459 0029044 245.6689 114.1430 14.35861311849647
Source of the keplerian elements: AFSPC